Location: *
(29.8416°N, 6.5173°W)
Time: 22:30:59
(UTC+00:00)

Daily predictions for brighter satellites

Satellite Brightness Start Highest point End
(mag) Time Altitude Azimuth Time Altitude Azimuth Time Altitude Azimuth
OAO 3 Copernicus 4.4 19:03:43 10° WNW 19:08:46 84° NNE 19:13:48 10° ESE
STARLINK-1100 4.4 19:05:02 10° NW 19:09:03 52° SW 19:13:04 10° SSE
Cosmos 1745 Rocket 4.4 19:04:00 10° N 19:10:13 72° W 19:16:19 10° S
ATLAS 5 CENTAUR R/B 2.6 19:09:46 10° SSE 19:12:44 20° ESE 19:15:47 10° ENE
Delta 128 3.8 19:08:49 10° W 19:13:19 70° S 19:18:17 10° E
Cosmos 1758 3.4 19:09:20 10° S 19:13:24 88° E 19:17:30 10° N
Cosmos 1626 2.0 19:11:18 10° N 19:15:00 77° E 19:18:41 10° S
Aureole 2 Rocket 3.8 19:12:57 10° NNE 19:15:34 20° ENE 19:18:05 10° ESE
Cosmos 2297 3.9 19:10:12 10° NNW 19:15:55 82° WSW 19:21:37 10° SSE
YAOGAN 1 2.7 19:15:00 10° S 19:19:18 82° WSW 19:23:38 10° NNW
SL-4 R/B 3.9 19:17:46 10° W 19:20:38 24° NW 19:23:29 10° NNE
STARLINK-1123 4.4 19:22:30 10° NNW 19:26:20 35° NE 19:29:35 13° ESE
Hubble Space Telescope 1.9 19:23:43 10° SW 19:27:14 28° SSE 19:30:08 13° ESE
CSL-04 Debris 4.3 19:24:34 10° S 19:30:03 82° WSW 19:35:32 10° NNW
Cosmos 1818 3.8 19:24:45 10° SSW 19:30:08 76° WNW 19:35:36 10° NNE
STARLINK-1097 4.3 19:27:23 10° NNW 19:31:17 39° NE 19:34:20 15° ESE
CZ-4 R/B 3.0 19:29:28 10° SSW 19:33:01 35° W 19:36:34 10° NNW
Cosmos 1626 Rocket 3.4 19:28:50 10° N 19:33:11 80° E 19:37:30 10° S
Cosmos 1943 Rocket 2.3 19:28:59 10° N 19:34:26 54° ENE 19:39:53 10° SE
Cosmos 1302 Rocket 4.4 19:29:13 10° NNW 19:34:28 68° WSW 19:39:42 10° S
STARLINK-1099 4.1 19:32:18 10° NNW 19:36:16 44° NE 19:39:08 17° ESE
TSX-5 3.9 19:32:15 10° NNW 19:36:24 70° WSW 19:39:46 10° SSE
FREGAT/IRIS 3.9 19:36:19 18° E 19:36:36 18° ENE 19:38:33 10° NNE
SEDSat Delta rocket 3.3 19:31:32 10° W 19:36:52 77° N 19:40:31 16° E
Cosmos 1939 Rocket 4.1 19:33:17 10° S 19:37:02 42° W 19:40:46 10° NNW
USA 186 3.1 19:35:52 16° ESE 19:37:29 23° ENE 19:40:11 10° NNE
Cosmos 2369 Rocket 2.6 19:34:48 10° N 19:40:11 44° ENE 19:44:54 13° SE
STARLINK-1104 4.0 19:37:16 10° NNW 19:41:16 49° NE 19:43:55 20° ESE
GPS 2-04 Rocket1 4.4 19:41:18 10° S 19:43:57 17° SE 19:44:28 16° SE
Cosmos 1602 Rocket 3.5 19:39:54 10° N 19:44:19 82° E 19:48:40 10° S
Cosmos 1908 4.0 19:41:58 10° SSE 19:45:20 30° E 19:48:45 10° NNE
Cosmos 1726 Rocket 4.2 19:41:28 10° SSE 19:45:24 34° E 19:49:23 10° NNE
STARLINK-1144 3.8 19:42:12 10° NNW 19:46:16 55° NE 19:48:42 22° ESE
STARLINK-29 2.9 19:43:12 10° SW 19:46:21 80° NW 19:49:33 10° NE
Cosmos 1953 2.7 19:44:20 10° SSW 19:48:15 65° W 19:52:12 10° N
IRS-1A Rocket 4.4 19:43:36 10° SSE 19:49:05 55° ENE 19:54:43 10° N
CZ-2C R/B 3.3 19:45:19 11° SE 19:49:50 43° ENE 19:54:22 10° N
Nadezhda 1 Rocket 4.3 19:44:53 10° SSE 19:50:53 45° E 19:56:53 10° NNE
STARLINK-1103 3.7 19:47:07 10° NW 19:51:13 63° NE 19:53:28 25° ESE
H-2A R/B 2.2 19:47:53 10° SSE 19:53:01 54° ENE 19:58:02 10° N
FALCON 9 DEB 3.3 19:51:50 10° SW 19:55:19 74° NW 19:58:48 10° NE
STARLINK-1101 3.6 19:52:07 10° NW 19:56:14 71° NE 19:58:17 28° SE
Cosmos 1943 4.2 19:51:01 10° SW 19:56:27 50° WNW 20:01:57 10° N
ISS -3.2 19:54:20 10° NNW 19:57:34 43° NE 19:58:24 35° E
Cosmos 1825 Rocket 3.9 19:56:54 10° N 20:01:02 41° E 20:02:39 29° SE
STARLINK-1102 3.5 19:57:03 10° NW 20:01:12 80° NE 20:03:03 32° SE
Cosmos 2263 4.4 19:57:15 10° N 20:02:40 49° ENE 20:05:30 26° SE
Cosmos 2084 Rocket 3.8 19:58:49 10° NW 20:03:15 66° WSW 20:06:35 17° SSE
STARLINK-1111 3.5 20:02:02 10° NW 20:06:10 90° SSW 20:07:50 35° SE
Cosmos 2228 2.8 20:03:30 10° S 20:07:45 82° E 20:12:04 10° N
Cosmos 1726 3.3 20:06:14 10° SSW 20:09:48 44° W 20:13:23 10° N
STARLINK-1073 3.6 20:07:00 10° NW 20:11:08 80° SW 20:12:37 38° SSE
Cosmos 1758 Rocket 3.3 20:10:01 10° N 20:14:20 78° E 20:16:37 27° SSE
Cosmos 1606 Rocket 3.7 20:10:18 10° S 20:14:41 75° W 20:19:08 10° N
STARLINK-1121 3.7 20:11:59 10° NW 20:16:06 70° SW 20:17:24 41° SSE
MOS 1 Rocket 3.8 20:12:19 10° NNE 20:17:34 50° E 20:21:10 20° SSE
SL-8 R/B 4.5 20:13:30 10° NNW 20:17:55 36° NE 20:18:54 33° ENE
Ariane Rocket 3.3 20:14:43 10° S 20:19:44 66° WSW 20:24:47 10° NNW
Cosmos 1656 Rocket 4.0 20:14:27 10° N 20:19:48 43° ENE 20:20:53 39° E
STARLINK-1106 3.9 20:16:58 10° NW 20:21:03 62° SW 20:22:10 43° S
ARGOS 3.1 20:17:46 18° SSE 20:21:54 87° ENE 20:27:18 10° NNW
Cosmos 1953 Rocket 3.8 20:17:47 10° N 20:22:08 49° E 20:22:11 49° E
Cosmos 2074 Rocket 3.9 20:17:02 10° N 20:23:21 88° E 20:29:26 11° S
CZ-2C R/B 2.5 20:20:10 10° NNE 20:25:15 56° E 20:27:37 30° SSE
CZ-3A R/B 4.0 19:57:21 10° W 20:25:47 46° SW 20:30:13 25° SSE
STARLINK-1112 4.1 20:21:59 10° NW 20:26:01 54° SW 20:26:59 43° S
Cosmos 1140 Rocket 3.3 20:21:42 10° S 20:26:53 81° ESE 20:32:05 10° NNE
Cosmos 1190 Rocket 4.1 20:24:15 10° SSW 20:29:32 80° WNW 20:34:52 10° NNE
STARLINK-1128 4.3 20:27:01 10° NW 20:31:00 47° SW 20:31:47 41° SSW
USA 234 3.2 20:24:36 10° NE 20:31:10 90° NE 20:37:42 10° SW
SJ-6B 3.0 20:31:57 51° S 20:32:53 75° W 20:37:01 10° NNW
ATLAS 2AS CENTAUR R/B 3.3 20:26:27 10° NNW 20:33:09 37° NE 20:34:23 34° ENE
DMSP B5D2-2 3.9 20:27:58 10° NNE 20:33:12 83° ESE 20:38:27 10° S
Cosmos 1437 3.9 20:30:59 10° NNW 20:33:27 40° WNW 20:33:27 40° WNW
CZ-2C R/B 4.1 20:29:38 10° N 20:34:15 63° WNW 20:38:45 10° SSW
STARLINK-1113 4.5 20:32:04 10° WNW 20:35:58 42° SW 20:36:34 39° SSW
SL-08 RB Rocket 3.6 20:37:39 58° S 20:38:31 83° W 20:43:06 10° NNW
Cosmos 1610 Rocket 4.3 20:33:30 10° N 20:39:40 75° E 20:41:42 44° SSE
GEOS 3 Rocket 4.3 20:40:09 29° S 20:42:23 48° WSW 20:47:22 10° NW
CZ-3 Stage 3 4.5 20:34:57 10° W 20:42:33 87° N 21:43:33 10° E
Resurs 1-3 4.3 20:53:50 46° N 20:53:50 46° N 20:56:58 10° N
SPOT 3 Rocket 3.6 20:55:26 69° SSW 20:55:56 77° WSW 21:01:10 10° NNW
ATLAS 5 CENTAUR R/B 3.7 20:53:48 10° WSW 20:57:05 23° NW 21:00:35 10° N
Cosmos 1295 Rocket 4.3 20:51:23 10° N 20:57:42 77° E 20:58:08 73° ESE
Cosmos 676 Rocket 4.1 20:52:49 10° SSW 20:58:06 74° WNW 21:03:22 10° NNE
Cosmos 1340 Rocket 4.3 21:00:03 33° WSW 21:00:44 36° W 21:04:29 10° NNW
Hubble Space Telescope 3.0 21:04:06 10° WSW 21:05:29 20° WSW 21:05:29 20° WSW
Cosmos 2341 Rocket 4.2 21:10:21 10° N 21:15:45 64° NNE 21:15:45 64° NNE
Resurs 01 Rocket 3.6 21:22:39 25° NNW 21:22:39 25° NNW 21:24:34 10° NNW
Cosmos 2369 Rocket 4.5 21:20:01 10° WNW 21:23:45 18° W 21:26:46 12° SW
COSMOS 2455 4.2 21:40:50 10° NNW 21:44:03 33° N 21:44:03 33° N
ATLAS 5 CENTAUR R/B 3.8 21:40:31 10° WSW 22:23:21 12° ESE 22:27:04 10° ESE
NOSS 3-4 (A) 4.2 21:44:41 10° NW 21:50:54 63° WNW 21:50:54 63° WNW
NOSS 3-4 (C) 4.2 21:44:47 10° NNW 21:50:59 63° WNW 21:50:59 63° WNW
ATLAS 2AS CENTAUR R/B 4.2 22:17:35 10° NW 22:21:50 29° WNW 22:21:50 29° WNW
